Regional Weather Roundup
Issued by NWS Albany, NY

Home | Current Version | Previous Version | Text Only | Print | Product List | Glossary On
Versions: 1 2 3 4 5 6 7 8 9 10 11 12 13 14 15 16 17 18 19 20 21 22 23 24 25 26 27 28 29 30 31 32 33 34 35 36 37 38 39 40 41 42 43 44 45 46 47 48 49 50
000
ASUS41 KALY 221010
RWRALY

NEW YORK STATE HOURLY WEATHER ROUNDUP
NATIONAL WEATHER SERVICE ALBANY NY
600 AM EDT FRI MAY 22 2015

NOTE: "FAIR" INDICATES FEW OR NO CLOUDS BELOW 12,000 FEET WITH NO
SIGNIFICANT WEATHER AND/OR NO OBSTRUCTIONS TO VISIBILITY.

NYZ032-033-038>043-046>054-057>066-NYZ062>081-221100-
EAST


CITY           SKY/WX    TMP DP  RH WIND       PRES   REMARKS
ALBANY         PTCLDY    49  38  65 S3        29.85R
GLENS FALLS    CLOUDY    46  41  82 CALM      29.82R
POUGHKEEPSIE   CLEAR     48  45  89 CALM      29.87R
NEWBURGH       CLEAR     46  45  93 W6        29.90R
MONTGOMERY     CLEAR     47  45  93 W3        29.88R
WHITE PLAINS   PTCLDY    52  43  71 NW12      29.87R
ISLIP          MOCLDY    51  48  89 NW7       29.84R
NEW YORK CITY  PTCLDY    56  44  64 NW12      29.88R
CENTRAL PARK   CLEAR     55  42  61 MISG      29.91R
$$

NYZ005>009-017-018-044>046-055-056-221100-
CENTRAL


CITY           SKY/WX    TMP DP  RH WIND       PRES   REMARKS
FULTON         PTCLDY    50  39  66 W10       29.88R
SYRACUSE       MOCLDY    53  38  56 W13       29.87R
ROME           CLOUDY    43  41  93 CALM      29.88R
ELMIRA         CLEAR     46  38  73 W9        29.91R
BINGHAMTON     CLEAR     42  37  82 W7        29.89R
MONTICELLO     CLEAR     43  39  87 W5        29.91R
$$

NYZ026>034-041>043-221100-
NORTH


CITY           SKY/WX    TMP DP  RH WIND       PRES   REMARKS
WATERTOWN      CLOUDY    47  38  71 N8        29.88R
FORT DRUM      NOT AVBL
MASSENA        CLOUDY    48  37  65 NW7       29.85R
SARANAC LAKE   CLOUDY    45  34  65 SW6       29.80R
PLATTSBURGH    MOCLDY    54  34  46 VRB3      29.79R
$$

NYZ001>004-010>016-019>021-221100-
WEST


CITY           SKY/WX    TMP DP  RH WIND       PRES   REMARKS
NIAGARA FALLS  CLEAR     46  33  60 NW9       29.95R
BUFFALO        PTCLDY    49  37  63 W8        29.95R
DUNKIRK        CLOUDY    50  41  71 W10       29.99R
JAMESTOWN      CLEAR     43  36  75 W7        29.98R
WELLSVILLE     PTCLDY    43  34  70 W12       29.95R
ROCHESTER      MOCLDY    52  39  61 W13       29.92R
PENN YAN       MOCLDY    53  37  54 W9G21     29.90R
$$

             KEY
       WCI = WIND CHILL INDEX
       VSB = VISIBILITY
       HX  = HEAT INDEX
$$


USA.gov is the U.S. government's official web portal to all federal, state and local government web resources and services.